Home > Weather > Santa María > Past weeks

Flag for Brazil Weather for the Past 2 Weeks in Santa María, Rio Grande do Sul, Brazil

Now
54 °F

Clear.


Feels Like: 52 °F
Forecast: N/A
Wind: 7 mph from East

Location: Porto Alegre Aero-Porto

Current Time: May 1, 2016 at 8:40:53 PM

Latest Report: May 1, 2016 at 8:00 PM


Visibility: 10 mi

Pressure: 30.15 "Hg

Humidity: 88%

Dew Point: 50 °F

Location of Santa MaríaLocation

Historic Weather in Santa María — Graph

°F

Santa María Temperature Yesterday

Maximum temperature yesterday: 63 °F (at 4:00 PM)
Minimum temperature yesterday: 50 °F (at 1:00 AM)
Average temperature yesterday: 55 °F

High & Low Weather Summary for the Past Weeks

 TemperatureHumidityPressure
High95 °F (Apr 17, 2:00 PM)100% (Apr 19, 6:00 AM)30.27 "Hg (Apr 19, 6:00 AM)
Low32 °F (Apr 24, 11:00 PM)27% (Apr 21, 2:00 PM)29.53 "Hg (Apr 25, 4:00 PM)
Average67 °F79%29.96 "Hg
* Reported Apr 16 7:00 PM — May 1 7:00 PM, Santa María, Weather by CustomWeather, © 2016

Note: Actual official high and low records may vary slightly from our data, if they occured in-between our weather recording intervals... More about our weather records

Advertising

Santa María Weather History for the Previous 24 Hours

Scroll right to see more
 ConditionsComfort  
Time TempWeatherWind HumidityBarometerVisibility
7:00 PM
Sun, May 1
55 °FClear.2 mph82%30.12 "Hg10 mi
6:00 PM61 °FClear.2 mph63%30.12 "Hg10 mi
5:00 PM64 °FPassing clouds.3 mph46%30.12 "HgN/A
4:00 PM64 °FPassing clouds.6 mph52%30.12 "HgN/A
3:00 PM64 °FPassing clouds.7 mph56%30.12 "HgN/A
2:00 PM63 °FPassing clouds.7 mph56%30.15 "HgN/A
1:00 PM61 °FPassing clouds.12 mph59%30.18 "HgN/A
12:00 PM59 °FPassing clouds.10 mph63%30.21 "HgN/A
11:00 AM57 °FPassing clouds.8 mph67%30.24 "HgN/A
10:00 AM54 °FSunny.9 mph77%30.24 "Hg10 mi
9:00 AM50 °FPassing clouds.8 mph88%30.24 "HgN/A
8:00 AM48 °FSunny.No wind94%30.21 "Hg10 mi
7:00 AM46 °FPassing clouds.6 mph93%30.21 "HgN/A
6:00 AM46 °FSunny.1 mph93%30.21 "Hg10 mi
5:00 AM46 °FPassing clouds.7 mph93%30.21 "HgN/A
4:00 AM48 °FPassing clouds.6 mph94%30.21 "HgN/A
3:00 AM48 °FClear.5 mph94%30.21 "Hg10 mi
2:00 AM48 °FClear.5 mph94%30.18 "Hg10 mi
1:00 AM50 °FPassing clouds.2 mph94%30.18 "HgN/A
12:00 AM50 °FClear.6 mph88%30.18 "Hg10 mi
11:00 PM
Sat, Apr 30
50 °FClear.6 mph88%30.18 "Hg10 mi
10:00 PM54 °FClear.7 mph82%30.21 "Hg10 mi
9:00 PM54 °FClear.7 mph82%30.21 "Hg10 mi
8:00 PM55 °FClear.6 mph72%30.18 "Hg10 mi
Weather by CustomWeather, © 2016

See weather overviewHow to use our weather pages